Dewpoint
37 26 21 24 25 21 21 20 21 25 16 18 25 25 20 22 22 25 26 25 26 18 19 21 21 21 20 20 20 19 18 20 23 23 23 23 23 23 23 23 23 24 26 31 33 34 34 39 45 47 50 52 53 56 57 57 58 58 58 58 58 59 59 59 59 58 57 57 57 56 57 56 57 60 60 60 61 62 63 63 65 64 65 65 64 63
34 28 26 28 29 23 19 20 20 19 20 18 23 23 21 24 17 24 25 26 25 18 19 20 18 18 16 16 16 18 19 19 18 19 20 21 22 23 24 24 24 23 29 34 36 35 36 36 41 44 47 50 51 53 56 57 57 57 58 58 58 58 58 59 59 59 58 58 57 57 57 57 56 57 59 59 59 61 60 61 62 63 64 64 64 63
27 27 30 30 25 23 21 20 19 19 24 27 18 25 24 22 20 25 25 26 25 21 18 19 20 19 19 19 20 20 21 21 20 19 19 19 19 20 22 24 25 27 27 28 30 35 35 37 39 41 43 48 50 51 54 56 57 57 57 57 58 58 58 58 58 58 58 58 57 57 55 56 53 53 56 58 56 57 59 59 60 61 62 63 63 63
22 27 27 27 23 21 20 20 21 23 26 24 21 20 17 25 22 21 21 23 24 19 16 24 23 23 23 24 23 23 21 20 20 20 21 22 20 19 19 19 22 25 28 29 28 32 36 37 38 39 40 44 48 49 50 52 55 56 56 56 57 57 57 57 57 56 57 56 54 53 52 53 54 53 52 54 54 56 57 58 58 59 60 62 62 62
22 23 26 24 24 21 21 23 20 17 19 26 28 25 24 25 24 22 21 23 23 21 29 24 22 17 21 21 21 19 22 22 22 21 18 20 26 24 27 28 26 22 26 30 30 34 38 38 38 39 39 42 45 48 49 50 52 53 55 55 56 56 56 56 56 55 54 53 52 51 51 50 50 50 52 52 52 56 57 57 58 58 58 60 62 62
21 26 31 25 29 26 24 20 26 25 18 20 27 27 23 24 23 28 29 19 20 19 25 24 16 18 20 22 18 15 10 7 12 20 18 17 18 22 23 24 26 35 33 30 31 35 39 39 39 40 41 42 43 45 47 48 49 50 52 53 53 54 55 55 54 54 53 54 54 53 53 52 52 53 52 54 55 55 56 57 57 56 56 57 58 61
21 29 31 27 27 29 26 24 27 22 22 17 14 33 27 26 30 28 26 20 16 11 23 25 16 18 20 13 9 7 6 6 9 13 14 20 20 21 23 25 28 31 33 37 38 38 39 40 40 40 41 42 42 43 46 46 47 48 50 51 52 53 53 53 53 53 52 52 53 53 54 53 53 53 53 51 50 54 54 54 54 55 53 55 56 57
28 29 30 32 29 29 26 21 26 22 21 17 29 34 30 28 27 29 29 23 19 26 29 27 23 15 14 7 10 9 11 11 13 13 13 12 17 22 23 27 31 34 34 36 37 38 39 40 40 39 41 42 42 43 45 46 46 47 49 50 51 52 52 52 52 52 52 53 52 52 52 52 52 52 52 50 49 50 51 52 52 53 54 54 55 56
28 29 30 29 30 29 24 25 30 26 22 23 33 35 30 30 31 30 27 25 24 20 17 24 27 15 19 19 19 17 14 13 12 12 13 13 13 15 23 25 32 35 38 38 39 40 39 40 41 40 41 42 43 43 44 45 46 47 48 50 50 51 51 51 52 52 52 52 52 52 51 50 50 50 49 48 49 50 50 51 50 52 53 54 54 55
32 33 32 32 29 24 30 33 36 30 28 29 35 35 34 33 31 31 25 24 23 13 15 21 25 10 15 22 14 15 12 11 9 9 11 15 17 17 30 37 38 39 38 40 42 41 40 41 41 41 42 42 43 44 44 45 46 47 48 49 50 50 51 51 51 51 51 51 51 51 51 51 50 49 48 48 49 49 48 50 50 51 52 54 54 53
31 32 35 32 27 29 33 33 35 35 31 35 34 30 30 29 27 26 25 22 16 5 15 22 26 13 10 18 13 12 16 12 12 14 21 28 34 35 34 35 37 38 38 37 39 39 39 39 39 41 42 42 42 43 45 45 46 47 48 49 49 50 50 50 51 51 51 51 51 51 51 50 49 49 49 48 48 49 48 50 49 50 52 53 53 53
33 32 31 32 33 34 33 31 33 36 36 35 29 27 22 20 25 24 22 22 6 11 19 24 25 18 11 16 20 19 13 15 18 14 21 27 29 34 36 37 37 39 40 40 38 38 37 37 37 40 41 42 43 43 45 46 46 47 47 48 48 48 49 50 51 51 51 51 51 51 50 50 50 49 50 50 49 49 49 49 49 49 50 51 51 51
27 29 33 33 35 32 31 28 28 32 34 30 22 16 14 11 19 10 16 11 10 9 18 23 24 22 20 15 15 17 18 17 18 17 21 26 28 33 34 36 38 38 39 39 38 38 38 37 37 38 40 41 42 44 44 45 46 47 47 47 48 48 48 50 50 50 50 50 50 50 50 49 49 49 50 50 49 49 49 49 48 48 50 50 50 49
27 30 33 32 31 33 29 24 24 25 28 25 20 18 12 3 7 5 10 13 12 19 21 19 21 18 19 15 20 18 16 15 18 19 25 28 31 34 36 37 38 38 38 38 39 39 39 38 38 38 38 41 43 43 44 44 45 46 47 47 47 48 48 49 50 50 50 50 50 49 49 49 49 49 49 49 49 49 49 49 49 48 49 49 49 49
17 20 27 29 25 32 30 25 24 24 29 27 26 17 18 14 8 1 5 1 10 15 20 23 12 18 10 14 20 18 18 21 21 23 28 30 32 34 36 38 39 39 38 39 41 41 40 40 39 38 38 39 41 42 43 43 44 45 46 47 47 47 47 48 49 49 49 50 49 48 48 49 49 49 49 49 49 49 49 49 49 48 48 48 48 48
21 22 25 30 29 32 31 32 29 30 26 27 28 25 14 15 19 6 15 13 11 11 9 14 15 19 16 18 22 23 23 19 15 18 22 22 25 28 30 32 38 40 40 40 40 41 42 41 41 40 39 39 39 42 42 43 45 45 46 46 47 47 47 47 48 48 49 49 48 48 47 48 48 48 48 48 48 48 49 49 49 48 48 48 47 47
22 18 31 32 31 30 30 31 26 27 15 21 25 21 24 28 20 16 15 22 12 9 11 16 18 18 19 9 12 14 13 13 12 12 12 14 22 23 23 27 33 38 38 39 41 42 42 40 42 42 40 40 40 42 43 44 45 46 46 46 46 46 46 47 47 48 48 47 47 47 47 47 46 47 47 48 48 48 47 48 49 48 48 47 47 47
20 22 31 30 29 30 33 34 32 34 28 26 21 24 29 31 27 16 9 12 7 7 11 13 9 7 4 9 18 14 13 12 12 11 11 15 20 19 24 28 32 38 39 39 39 39 39 40 42 43 42 41 41 42 43 43 44 45 46 46 46 46 46 46 46 46 47 46 46 46 46 47 47 47 47 47 47 47 46 46 47 48 48 48 47 46
23 13 23 31 31 33 34 32 30 32 33 24 25 32 22 19 15 22 15 6 5 6 9 13 12 11 9 7 7 7 8 8 11 14 12 12 15 19 23 26 35 37 38 38 39 40 40 40 40 41 43 42 42 42 43 43 44 45 45 45 46 46 46 46 46 46 46 47 47 47 46 46 46 47 47 46 47 46 46 46 46 46 47 47 47 46
21 15 19 29 31 32 31 29 25 26 32 33 31 26 31 24 21 17 18 15 15 4 1 11 5 6 17 15 8 8 8 11 9 11 15 15 17 18 21 24 36 37 38 38 38 39 40 41 41 41 42 42 42 42 42 43 43 44 45 45 45 45 44 44 45 45 46 46 46 46 45 45 46 46 46 46 46 47 46 46 45 45 45 47 46 46
20 16 10 25 30 29 26 27 24 27 28 27 26 24 25 23 26 24 21 16 11 4 5 3 6 9 14 13 11 10 10 13 16 20 23 23 23 22 22 29 37 37 35 36 37 38 39 40 39 39 39 39 39 39 40 42 43 44 44 45 45 45 45 45 45 45 46 45 45 44 44 45 44 44 45 44 45 46 46 45 45 45 45 44 44 44
17 17 18 26 27 26 27 30 27 28 28 28 26 25 25 25 19 13 17 21 13 9 9 3 7 13 17 15 10 14 20 19 24 24 24 23 21 33 36 37 37 35 36 38 38 38 38 38 38 38 38 38 38 38 39 41 42 42 44 45 45 44 45 45 45 45 45 45 45 44 44 43 42 43 43 43 43 43 43 42 43 43 43 41 42 41
22 25 26 23 27 28 29 30 34 31 31 29 27 25 28 25 24 17 13 17 17 18 17 15 8 13 13 11 19 22 23 23 23 22 21 22 23 33 38 39 39 38 37 38 38 38 38 38 38 38 38 38 39 39 38 38 41 43 43 43 43 43 44 44 45 45 45 45 44 43 42 41 41 41 40 41 40 40 40 39 39 41 42 42 41 40
30 19 17 21 28 29 31 33 32 33 32 29 29 28 26 25 25 22 18 20 20 18 16 14 13 14 19 20 19 20 20 22 23 24 22 23 29 33 36 37 37 38 39 39 40 39 38 36 36 36 36 37 37 37 39 41 40 42 42 42 42 43 43 42 43 43 43 43 43 41 40 41 40 39 39 39 39 39 38 38 38 38 40 41 41 40
22 25 21 15 15 23 25 28 29 30 30 27 26 29 28 27 26 25 21 20 17 21 20 18 14 16 24 20 23 24 22 22 21 21 25 23 29 34 36 37 37 38 39 39 38 38 38 36 35 37 37 37 37 37 38 40 41 41 41 41 42 43 42 42 41 41 42 41 41 39 39 39 38 39 38 38 38 38 37 37 37 37 39 39 39 39
28 29 23 18 16 15 15 21 20 23 28 28 28 29 29 27 26 23 22 19 19 21 22 18 17 17 17 23 21 22 24 22 23 27 28 31 29 30 30 31 33 37 38 38 37 37 36 37 36 36 36 36 37 38 38 39 40 41 41 42 42 42 42 42 40 41 41 41 40 40 38 38 38 39 39 38 37 37 37 36 37 37 36 39 39 37
29 32 27 23 21 19 21 22 26 30 26 25 26 28 28 29 29 25 24 21 20 21 21 22 21 19 19 19 22 22 23 22 24 25 24 25 25 27 31 34 34 35 36 37 38 38 36 37 38 37 36 37 37 37 38 39 39 40 40 41 42 42 42 41 41 41 41 40 39 40 39 39 39 39 38 38 37 36 36 36 36 36 37 37 38 36
30 27 29 30 29 27 28 31 32 30 27 27 27 27 28 28 29 28 25 22 24 20 20 22 24 23 21 21 21 21 23 24 25 24 24 24 25 28 28 29 34 37 38 38 35 36 36 36 36 35 36 37 37 38 38 38 39 39 40 40 41 41 42 42 42 41 41 40 40 40 40 40 39 38 38 37 37 37 36 36 35 35 35 35 36 36
32 27 30 29 28 30 31 32 32 31 30 29 28 27 26 27 27 27 28 27 27 24 21 23 25 24 23 23 24 25 25 24 24 24 25 25 27 28 28 28 29 31 33 32 31 31 33 34 33 32 32 34 36 37 37 38 38 38 39 39 40 40 41 41 41 41 41 41 41 41 41 39 37 37 37 36 36 36 36 36 35 34 34 33 34 34
33 29 31 29 28 29 30 31 32 31 30 30 30 30 30 28 28 29 29 30 29 27 28 28 28 28 27 27 27 28 28 28 27 29 29 28 28 29 28 29 29 29 30 30 30 30 31 31 31 31 31 31 33 35 36 37 37 38 38 39 39 39 40 39 40 41 41 41 42 42 40 38 37 37 36 36 36 36 35 35 34 33 33 32 33 33
33 30 33 32 29 29 31 32 32 33 33 30 32 33 33 32 32 31 29 29 28 29 30 30 30 29 30 29 29 29 29 29 29 29 28 29 29 29 29 29 30 30 31 31 31 31 32 32 32 32 32 32 32 33 35 36 36 37 38 38 38 39 39 39 39 40 40 41 41 40 38 38 38 37 36 36 36 35 35 34 33 33 32 32 32 32
34 31 33 32 31 30 32 32 32 32 33 33 33 33 34 33 32 32 31 31 29 29 29 29 28 28 29 30 30 29 30 30 30 30 30 30 30 30 30 31 31 31 31 32 32 32 32 32 32 32 32 32 33 33 33 35 36 36 37 37 38 39 37 38 39 40 40 41 40 39 38 38 37 36 36 35 36 35 34 33 32 32 31 31 30 30
34 32 32 32 31 30 32 31 31 31 31 31 32 33 34 34 34 33 34 34 32 32 30 29 29 30 30 31 31 31 31 30 31 30 31 31 31 31 31 31 31 32 32 33 33 33 33 33 33 33 33 33 34 35 34 35 36 36 37 37 37 35 36 38 39 39 39 39 38 38 37 36 36 36 35 35 35 34 33 33 32 31 30 30 29 28
33 33 32 33 30 30 29 29 30 30 25 26 34 35 34 33 33 32 32 33 34 34 31 31 31 31 31 31 31 31 31 31 31 32 32 32 32 31 32 32 33 33 33 33 33 33 34 34 34 34 34 34 35 35 35 35 36 37 37 36 34 36 37 37 37 38 38 38 37 36 36 36 36 35 35 34 33 33 33 32 32 30 30 29 29 28
32 32 31 32 31 29 29 31 29 24 26 31 35 36 35 34 33 33 33 32 33 33 34 34 33 33 33 33 33 33 33 33 33 33 33 33 32 32 32 32 32 32 33 33 33 33 34 34 34 35 35 36 36 35 35 36 36 37 34 35 35 35 36 36 37 37 37 37 36 35 35 36 36 35 34 33 33 32 32 31 30 29 29 29 28 29
32 32 30 30 32 31 29 30 23 22 29 33 32 34 35 34 33 32 32 33 33 33 33 33 33 33 33 33 33 33 33 33 33 33 34 34 33 33 33 33 34 34 34 34 35 35 36 36 36 36 36 36 35 36 34 36 35 33 35 33 34 34 34 35 35 36 35 36 36 36 36 35 35 34 32 32 31 31 30 29 29 28 28 28 28 29
33 28 29 30 31 27 28 28 27 31 30 30 29 29 29 29 30 31 29 30 32 33 33 33 33 33 33 33 33 33 33 32 32 33 34 34 35 35 36 36 35 35 35 36 35 35 36 35 35 35 34 34 34 34 35 34 32 32 32 32 33 32 33 33 34 35 35 36 35 35 35 34 34 33 32 32 31 30 29 28 27 27 28 28 28 29
34 31 32 30 28 30 27 26 26 27 24 27 30 31 32 33 33 33 31 30 34 33 34 34 33 33 34 33 33 33 31 31 31 31 33 34 34 35 35 34 33 33 33 34 33 33 33 33 33 32 32 32 33 33 33 32 31 31 31 32 31 31 32 32 34 34 34 34 34 34 34 34 34 33 32 30 31 30 29 28 28 28 28 28 28 29
35 33 32 30 29 29 27 24 24 23 24 28 28 29 31 32 34 32 31 29 31 32 32 33 32 33 32 31 32 31 30 30 31 31 33 34 34 34 34 34 34 33 32 32 32 32 32 32 31 31 32 32 32 33 31 31 30 31 32 31 31 30 32 33 34 33 33 34 33 33 33 33 33 32 31 30 30 29 29 28 28 28 29 30 30 29
34 34 32 30 29 29 28 26 24 26 25 27 27 27 30 31 35 32 26 27 33 32 31 31 31 31 30 30 30 31 29 29 31 32 33 33 34 34 33 34 34 34 33 33 33 31 30 29 30 30 31 31 31 30 29 29 30 30 32 32 29 31 32 33 33 32 31 31 31 32 32 32 32 31 30 30 29 28 28 28 27 28 28 29 29 28
32 32 33 29 29 30 29 26 27 28 29 30 30 29 29 33 32 27 23 29 30 30 30 30 30 31 31 32 32 31 31 32 33 34 33 32 33 34 34 32 32 33 33 33 33 32 31 30 29 30 30 30 29 28 28 28 29 31 31 30 29 31 32 31 30 30 31 30 30 30 30 30 31 30 29 29 28 28 27 28 28 28 29 28 28 27
31 32 32 32 30 28 28 27 25 27 28 28 29 31 30 27 25 24 29 27 28 29 30 29 30 30 31 31 31 31 33 33 33 33 32 32 33 34 34 34 34 34 33 32 32 30 31 30 29 29 29 28 28 27 27 27 29 30 30 29 31 31 30 28 29 28 28 28 28 28 28 28 27 28 28 27 27 27 27 27 28 29 29 27 27 26
29 29 27 29 30 30 28 25 24 21 26 31 31 28 28 25 26 29 28 28 29 30 30 30 30 31 30 32 32 33 33 33 32 32 33 32 32 33 34 34 34 34 34 33 33 32 30 30 29 29 29 28 26 26 26 27 28 29 29 29 31 29 27 28 27 27 26 26 26 25 26 26 27 27 27 27 27 26 26 27 28 28 28 27 26 25
27 26 24 28 31 25 26 24 24 29 31 31 31 27 32 32 33 32 31 30 32 32 32 32 32 33 33 33 34 33 33 32 31 31 32 33 33 32 32 33 34 34 33 32 31 31 30 29 29 29 29 28 27 26 26 26 29 29 28 30 28 26 27 26 26 25 25 24 24 24 24 25 25 26 26 26 26 26 26 27 28 27 26 26 25 24
24 24 23 22 26 26 21 25 31 30 31 30 32 31 32 36 34 33 33 33 33 33 33 33 33 34 34 34 34 34 33 31 31 32 31 32 33 33 33 33 33 33 33 33 33 31 29 29 29 29 29 29 27 27 26 25 28 28 28 27 25 25 25 25 24 24 24 23 23 23 23 24 25 25 25 25 26 26 27 27 27 25 25 25 24 23
19 27 24 20 24 24 24 27 28 30 29 27 29 32 33 34 33 33 33 32 33 34 34 33 33 33 33 33 33 33 32 32 32 32 32 33 33 33 33 33 33 33 33 33 33 32 31 29 28 28 28 29 28 27 26 27 27 28 29 25 26 24 25 25 24 23 23 22 23 23 24 24 23 23 24 25 26 27 27 26 26 25 24 24 23 23
23 27 24 24 27 24 20 27 28 29 28 26 26 27 29 31 31 31 31 32 33 33 31 31 33 32 33 33 34 33 33 32 32 33 33 33 33 33 33 33 33 33 33 33 33 32 31 29 29 29 29 29 29 25 26 25 27 28 27 25 25 24 24 24 24 24 23 23 23 22 23 24 24 23 23 24 26 27 26 26 25 25 24 23 23 22
20 26 24 23 24 24 23 24 26 27 27 26 27 26 29 32 31 30 32 32 33 33 32 32 31 30 30 29 30 31 32 33 32 32 32 33 33 33 33 33 32 32 32 32 32 31 30 30 29 29 29 29 29 26 25 25 26 26 25 23 23 23 24 25 25 25 23 23 23 24 24 24 25 24 24 24 25 26 26 26 25 24 24 23 23 22
21 21 16 21 24 23 22 23 23 22 23 24 24 28 29 28 25 25 27 29 29 30 30 29 29 30 29 30 29 29 30 32 31 31 32 32 32 32 32 32 32 32 32 32 32 30 30 29 29 29 28 29 28 25 24 24 24 22 23 24 22 24 25 25 25 24 23 23 24 24 26 25 25 25 25 25 25 25 26 25 25 25 25 25 25 24
20 18 20 20 17 17 19 21 21 18 17 22 23 22 20 20 21 23 26 25 26 27 28 28 29 28 28 28 28 28 29 31 31 32 32 32 32 32 32 32 32 32 32 32 31 29 27 27 27 27 28 28 27 24 23 23 23 22 22 23 24 25 26 26 25 25 25 25 25 25 25 25 26 26 25 25 25 25 26 28 28 27 25 26 28 28
21 19 21 20 19 19 21 22 22 23 22 23 22 21 20 24 26 26 27 26 27 27 27 27 28 28 29 29 29 28 27 28 29 30 30 31 31 31 31 31 31 31 31 31 31 30 30 28 27 26 26 27 26 23 23 23 22 22 22 24 25 26 26 25 26 25 26 26 26 26 26 26 26 26 25 25 25 25 25 26 28 29 29 28 29 28